This is the latest recevied weather packets stored in our database for station/object SR4DIG-13. If no packets are shown the sender has not sent any weather packets the latest 10 day(s).
| Time | Temp. | Humidity | Pressure | Rain* | Wind** | Luminosity | Snow |
|---|---|---|---|---|---|---|---|
| 1777889282 | 26.67° C | 23% | 1011.8 hPa | 0 mm | - | - | - |
| 1777888773 | 26.67° C | 23% | 1011.8 hPa | 0 mm | - | - | - |
| 1777888472 | 26.67° C | 24% | 1012 hPa | 0 mm | - | - | - |
| 1777887569 | 26.11° C | 24% | 1012 hPa | 0 mm | - | - | - |
| 1777887268 | 26.67° C | 24% | 1012 hPa | 0 mm | - | - | - |
| 1777886968 | 26.67° C | 24% | 1012 hPa | 0 mm | - | - | - |
| 1777886667 | 26.11° C | 26% | 1011.9 hPa | 0 mm | - | - | - |
| 1777886366 | 26.11° C | 26% | 1011.9 hPa | 0 mm | - | - | - |
| 1777886065 | 25.56° C | 27% | 1012 hPa | 0 mm | - | - | - |
| 1777885764 | 25.56° C | 26% | 1012 hPa | 0 mm | - | - | - |
| 1777885113 | 25° C | 27% | 1012 hPa | 0 mm | - | - | - |
| 1777883909 | 25° C | 28% | 1011.9 hPa | 0 mm | - | - | - |
| 1777883609 | 25° C | 28% | 1012 hPa | 0 mm | - | - | - |
| 1777883308 | 25° C | 29% | 1012 hPa | 0 mm | - | - | - |
| 1777882955 | 25° C | 29% | 1012.1 hPa | 0 mm | - | - | - |
| 1777882654 | 25° C | 29% | 1012 hPa | 0 mm | - | - | - |
| 1777882353 | 24.44° C | 30% | 1012.2 hPa | 0 mm | - | - | - |
| 1777882052 | 23.89° C | 30% | 1012.3 hPa | 0 mm | - | - | - |
| 1777881751 | 23.89° C | 30% | 1012.2 hPa | 0 mm | - | - | - |
| 1777881450 | 23.89° C | 30% | 1012.3 hPa | 0 mm | - | - | - |
| 1777881149 | 23.89° C | 30% | 1012.1 hPa | 0 mm | - | - | - |
| 1777880308 | 23.33° C | 30% | 1012.1 hPa | 0 mm | - | - | - |
| 1777880007 | 23.33° C | 31% | 1012.2 hPa | 0 mm | - | - | - |
| 1777879706 | 23.33° C | 32% | 1012.1 hPa | 0 mm | - | - | - |
| 1777879405 | 22.78° C | 33% | 1012.4 hPa | 0 mm | - | - | - |
* Rain since midnight (hover to see other rain measurements)
** Current wind speed in m/s (hover to see current wind gust speed)